FMN 1 (43192 NORAD) Tracking and Keplerian Element Data.

This shows tracking and keplerian element data for the satellite.

Feedback or suggestion? Click here.

NameFMN 1
Epoch Orbit621
Epoch Day74.19085742
Epoch Year2018
Argument of Perigee110.1831
Mean Anonmoly250.1402
Mean Motion15.22379612
Decay Rate2.353E-05
L11 43192U 18015A 18074.19085742 .00002353 00000-0 10446-3 0 9991
L22 43192 97.3404 205.1307 0018538 110.1831 250.1402 15.22379612 6217

Live tracking and technical data element details for FMN 1 (NORAD 43192). FMN 1 can be tracked NOW for your location showing map with azimuth and elevation plus other details from your city location.

Tracking and technical details about the satellite: track the satellite on the map from your city or location and see movement details for azimuth, elevation, latitude, longitude, range, height, and movement on the map or in text.

Es'hailsat 2 (coming in 2018)

IsCatalogInMostPopularTable: catalog: 43192, numindb: 27
Update: records affected: 1

GetName: 43192 FMN 1

Hit Count: updated at: Thu, 22 Mar 2018 13:51:04 GMT